Hourly Weather Trowbridge

Today, 25 September, Friday

Time Temperature Precipitation Wind Pressure Humidity
00:00 +7°C° 0 mm 3 mps 742 mmHg 88%
01:00 +6°C° 0 mm 4 mps 743 mmHg 89%
02:00 +5°C° 0 mm 4 mps 744 mmHg 89%
03:00 +5°C° 0 mm 5 mps 744 mmHg 89%
04:00 +5°C° 0 mm 5 mps 745 mmHg 89%
05:00 +4°C° 0 mm 6 mps 747 mmHg 89%
06:00 +5°C° 0 mm 5 mps 748 mmHg 89%
07:00 +7°C° 0 mm 6 mps 748 mmHg 83%
08:00 +7°C° 0 mm 8 mps 749 mmHg 77%
09:00 +8°C° 0 mm 9 mps 750 mmHg 72%
10:00 +10°C° 0 mm 9 mps 751 mmHg 66%
11:00 +11°C° 0 mm 9 mps 751 mmHg 59%
12:00 +12°C° 0 mm 10 mps 752 mmHg 53%
13:00 +12°C° 0 mm 10 mps 752 mmHg 54%
14:00 +13°C° 0 mm 9 mps 753 mmHg 55%
15:00 +13°C° 0 mm 9 mps 753 mmHg 55%
16:00 +12°C° 0 mm 8 mps 753 mmHg 60%
17:00 +11°C° 0 mm 7 mps 754 mmHg 64%
18:00 +9°C° 0 mm 6 mps 754 mmHg 69%
19:00 +9°C° 0 mm 6 mps 755 mmHg 71%
20:00 +8°C° 0 mm 6 mps 755 mmHg 73%
21:00 +8°C° 0 mm 6 mps 756 mmHg 75%
22:00 +7°C° 0 mm 6 mps 756 mmHg 77%
23:00 +7°C° 0 mm 5 mps 756 mmHg 78%

Tomorrow, 26 September, Saturday

Time Temperature Precipitation Wind Pressure Humidity
00:00 +7°C° 0 mm 5 mps 756 mmHg 80%
01:00 +6°C° 0 mm 5 mps 756 mmHg 80%
02:00 +6°C° 0 mm 5 mps 756 mmHg 81%
03:00 +6°C° 0 mm 4 mps 756 mmHg 82%
04:00 +5°C° 0 mm 4 mps 756 mmHg 82%
05:00 +5°C° 0 mm 4 mps 756 mmHg 83%
06:00 +5°C° 0 mm 4 mps 756 mmHg 84%
07:00 +6°C° 0 mm 5 mps 756 mmHg 77%
08:00 +7°C° 0 mm 6 mps 756 mmHg 70%
09:00 +8°C° 0 mm 6 mps 757 mmHg 63%
10:00 +9°C° 0 mm 6 mps 757 mmHg 59%
11:00 +10°C° 0 mm 6 mps 756 mmHg 56%
12:00 +11°C° 0 mm 6 mps 756 mmHg 53%
13:00 +11°C° 0 mm 7 mps 756 mmHg 54%
14:00 +11°C° 0 mm 7 mps 756 mmHg 55%
15:00 +11°C° 0 mm 7 mps 757 mmHg 56%
16:00 +10°C° 0 mm 6 mps 757 mmHg 60%
17:00 +9°C° 0 mm 5 mps 757 mmHg 65%
18:00 +8°C° 0 mm 5 mps 757 mmHg 69%
19:00 +7°C° 0 mm 5 mps 758 mmHg 71%
20:00 +7°C° 0 mm 5 mps 758 mmHg 73%
21:00 +7°C° 0 mm 5 mps 758 mmHg 75%
22:00 +6°C° 0 mm 5 mps 758 mmHg 76%
23:00 +6°C° 0 mm 5 mps 758 mmHg 77%

Day after tomorrow, 27 September, Sunday

Time Temperature Precipitation Wind Pressure Humidity
00:00 +6°C° 0 mm 4 mps 758 mmHg 79%
01:00 +5°C° 0 mm 5 mps 758 mmHg 80%
02:00 +5°C° 0 mm 5 mps 758 mmHg 81%
03:00 +5°C° 0 mm 5 mps 758 mmHg 82%
04:00 +5°C° 0 mm 5 mps 758 mmHg 82%
05:00 +3°C° 0 mm 5 mps 758 mmHg 83%
06:00 +4°C° 0 mm 4 mps 758 mmHg 84%
07:00 +5°C° 0 mm 5 mps 758 mmHg 79%
08:00 +7°C° 0 mm 6 mps 758 mmHg 74%
09:00 +8°C° 0 mm 7 mps 758 mmHg 70%
10:00 +9°C° 0 mm 6 mps 758 mmHg 65%
11:00 +10°C° 0 mm 6 mps 758 mmHg 61%
12:00 +13°C° 0 mm 6 mps 758 mmHg 57%
13:00 +13°C° 0 mm 6 mps 757 mmHg 56%
14:00 +13°C° 0 mm 6 mps 757 mmHg 56%
15:00 +14°C° 0 mm 6 mps 757 mmHg 55%
16:00 +12°C° 0 mm 5 mps 757 mmHg 61%
17:00 +10°C° 0 mm 4 mps 757 mmHg 66%
18:00 +9°C° 0 mm 3 mps 757 mmHg 72%
19:00 +8°C° 0 mm 2 mps 757 mmHg 74%
20:00 +7°C° 0 mm 2 mps 758 mmHg 76%
21:00 +7°C° 0 mm 2 mps 758 mmHg 78%
22:00 +6°C° 0 mm 2 mps 758 mmHg 77%
23:00 +7°C° 0 mm 1 mps 757 mmHg 77%

28 September, Monday

Time Temperature Precipitation Wind Pressure Humidity
00:00 +7°C° 0 mm 1 mps 757 mmHg 76%
01:00 +7°C° 0 mm 1 mps 757 mmHg 77%
02:00 +7°C° 0 mm 1 mps 757 mmHg 78%
03:00 +7°C° 0 mm 1 mps 757 mmHg 78%
04:00 +7°C° 0 mm 1 mps 757 mmHg 82%
05:00 +6°C° 0 mm 2 mps 757 mmHg 85%
06:00 +6°C° 0 mm 2 mps 757 mmHg 89%
07:00 +8°C° 0 mm 2 mps 756 mmHg 87%
08:00 +10°C° 0 mm 2 mps 756 mmHg 84%
09:00 +13°C° 0 mm 3 mps 756 mmHg 82%
10:00 +14°C° 0 mm 3 mps 756 mmHg 80%
11:00 +15°C° 0 mm 4 mps 756 mmHg 78%
12:00 +18°C° 0 mm 4 mps 756 mmHg 76%
13:00 +18°C° 0.1 mm 4 mps 756 mmHg 77%
14:00 +18°C° 0.1 mm 4 mps 756 mmHg 78%
15:00 +18°C° 0.1 mm 4 mps 756 mmHg 79%
16:00 +17°C° 0.1 mm 4 mps 756 mmHg 84%
17:00 +16°C° 0.1 mm 3 mps 756 mmHg 88%
18:00 +14°C° 0.1 mm 3 mps 757 mmHg 92%
19:00 +13°C° 0 mm 3 mps 757 mmHg 91%
20:00 +12°C° 0 mm 3 mps 757 mmHg 90%
21:00 +10°C° 0 mm 3 mps 758 mmHg 88%
22:00 +10°C° 0 mm 3 mps 758 mmHg 89%
23:00 +9°C° 0 mm 2 mps 759 mmHg 89%

29 September, Tuesday

Time Temperature Precipitation Wind Pressure Humidity
00:00 +8°C° 0 mm 2 mps 759 mmHg 89%
01:00 +8°C° 0 mm 2 mps 759 mmHg 89%
02:00 +9°C° 0 mm 1 mps 759 mmHg 89%
03:00 +8°C° 0 mm 1 mps 759 mmHg 89%
04:00 +8°C° 0 mm 1 mps 759 mmHg 89%
05:00 +8°C° 0 mm 1 mps 760 mmHg 88%
06:00 +7°C° 0 mm 0 mps 760 mmHg 88%
07:00 +10°C° 0 mm 1 mps 760 mmHg 84%
08:00 +12°C° 0 mm 1 mps 760 mmHg 80%
09:00 +13°C° 0 mm 1 mps 761 mmHg 76%
10:00 +14°C° 0 mm 1 mps 761 mmHg 71%
11:00 +15°C° 0 mm 2 mps 761 mmHg 65%
12:00 +16°C° 0 mm 2 mps 761 mmHg 59%
13:00 +16°C° 0 mm 3 mps 760 mmHg 59%
14:00 +16°C° 0 mm 3 mps 760 mmHg 58%
15:00 +16°C° 0 mm 3 mps 760 mmHg 58%
16:00 +14°C° 0 mm 3 mps 760 mmHg 64%
17:00 +13°C° 0 mm 2 mps 760 mmHg 70%
18:00 +12°C° 0 mm 2 mps 760 mmHg 76%
19:00 +10°C° 0 mm 2 mps 760 mmHg 78%
20:00 +11°C° 0 mm 1 mps 760 mmHg 80%
21:00 +10°C° 0 mm 1 mps 760 mmHg 81%
22:00 +10°C° 0 mm 1 mps 759 mmHg 82%
23:00 +9°C° 0 mm 1 mps 759 mmHg 83%

30 September, Wednesday

Time Temperature Precipitation Wind Pressure Humidity
00:00 +9°C° 0 mm 1 mps 759 mmHg 83%
01:00 +8°C° 0 mm 2 mps 758 mmHg 85%
02:00 +8°C° 0 mm 2 mps 758 mmHg 87%
03:00 +8°C° 0 mm 2 mps 758 mmHg 88%
04:00 +8°C° 0 mm 2 mps 757 mmHg 89%
05:00 +8°C° 0 mm 2 mps 757 mmHg 90%
06:00 +8°C° 0 mm 2 mps 756 mmHg 91%
07:00 +10°C° 0 mm 4 mps 756 mmHg 86%
08:00 +12°C° 0 mm 5 mps 755 mmHg 80%
09:00 +14°C° 0 mm 6 mps 755 mmHg 75%
10:00 +14°C° 0.1 mm 7 mps 754 mmHg 75%
11:00 +14°C° 0.1 mm 7 mps 754 mmHg 76%
12:00 +13°C° 0.1 mm 8 mps 753 mmHg 76%
13:00 +13°C° 0.8 mm 8 mps 752 mmHg 80%
14:00 +12°C° 0.8 mm 9 mps 751 mmHg 85%
15:00 +11°C° 0.8 mm 9 mps 750 mmHg 89%
16:00 +12°C° 1.1 mm 9 mps 750 mmHg 90%
17:00 +12°C° 1.1 mm 9 mps 749 mmHg 91%
18:00 +12°C° 1.1 mm 9 mps 748 mmHg 93%
19:00 +12°C° 1.8 mm 9 mps 747 mmHg 93%
20:00 +13°C° 1.8 mm 9 mps 747 mmHg 94%
21:00 +13°C° 1.8 mm 9 mps 746 mmHg 94%
22:00 +15°C° 3.5 mm 9 mps 745 mmHg 95%
23:00 +15°C° 3.5 mm 9 mps 744 mmHg 95%
Show more